[[{"header":{"parameterUnit":"m.s-1","parameterCategory":1,"la1":30.2991,"la2":30.254,"lo1":-89.0895,"lo2":-89.0444,"dy":0.0017,"dx":0.0017,"nx":28,"ny":28,"refTime":"2025-07-23T21:00:00:Z","depth":0,"parameterNumber":2,"parameterNumberName":"U-component_of_WINDS"},"data":[0,0,0,0,0,0,0,0,0,0,0,0,0,0,0,0,0,0,0,0,0,0,0,0,0,0,0,0,0,0,0,0,0,0,0,0,0,0,0,0,0,0,0,0,0,0,0,0,0,0,0,0,0,0,0,0,0,0,-2.3097,-2.3099,0,-2.3276,-2.3278,-2.328,-2.337,-2.337,-2.337,-2.337,-2.3553,-2.3558,-2.3562,0,0,0,0,0,0,0,0,0,0,0,0,0,-2.2836,-2.284,-2.3097,-2.3099,-2.3102,-2.3275,-2.3278,-2.328,-2.337,-2.337,-2.337,-2.337,-2.3551,-2.3557,-2.3563,0,0,0,0,0,0,0,0,0,0,0,0,0,-2.2975,-2.2842,-2.3097,-2.3167,-2.3175,-2.3275,-2.3278,-2.3281,-2.337,-2.337,-2.337,-2.337,-2.3549,-2.3556,-2.3563,-2.3606,0,0,-2.3585,-2.3589,0,0,0,0,0,0,0,0,-2.2967,-2.2985,-2.3155,-2.3163,-2.3172,-2.3301,-2.3253,-2.339,-2.337,-2.3296,-2.337,-2.337,-2.3469,-2.3483,-2.3516,-2.3615,-2.3623,-2.3586,-2.3591,-2.3594,-2.3596,0,0,0,0,0,0,0,-2.2958,-2.2978,-2.3168,-2.3157,-2.3168,-2.3191,-2.3211,-2.3279,-2.338,-2.3303,-2.331,-2.333,-2.3474,-2.3509,-2.3521,-2.3625,-2.3586,-2.3592,-2.3597,-2.36,-2.3771,-2.3771,0,0,0,0,0,0,-2.2936,-2.2969,-2.3162,-2.3173,-2.3068,-2.3195,-2.3218,-2.3259,-2.3379,-2.3398,-2.3329,-2.3333,-2.3496,-2.3512,-2.3528,-2.3587,-2.3594,-2.36,-2.3604,-2.3771,-2.3771,-2.3771,0,0,0,0,0,0,-2.293,-2.2953,-2.3155,-2.3073,-2.3101,-2.32,-2.3246,-2.3263,-2.3298,-2.34,-2.3418,-2.3347,-2.3497,-2.3518,-2.3587,-2.3595,-2.3604,-2.361,-2.377,-2.3771,-2.3771,-2.3705,0,0,0,0,0,0,-2.2923,-2.295,-2.2967,-2.3073,-2.3105,-2.321,-2.3246,-2.3266,-2.331,-2.3317,-2.3421,-2.3438,-2.3499,-2.3575,-2.3594,-2.3605,-2.3616,-2.377,-2.3771,-2.3771,-2.3707,-2.3703,-2.37,0,0,0,0,0,-2.2913,-2.294,-2.2967,-2.299,-2.3127,-2.321,-2.3229,-2.3298,-2.331,-2.3329,-2.3394,-2.3435,-2.3591,-2.3582,-2.3603,-2.3617,-2.377,-2.377,-2.3771,-2.3709,-2.3704,-2.37,0,0,0,0,0,0,-2.2832,-2.2955,-2.2986,-2.3049,-2.3118,-2.3225,-2.325,-2.3291,-2.3358,-2.3361,-2.3445,-2.3468,-2.3529,-2.358,-2.3567,-2.3666,-2.3685,-2.3689,-2.363,-2.3627,-2.3623,-2.3609,-2.3622,0,0,0,0,0,-2.2821,-2.2878,-2.2983,-2.3028,-2.3062,-2.3149,-2.3188,-2.3236,-2.3312,-2.3341,-2.3412,-2.3484,-2.355,-2.3591,-2.3657,-2.3715,-2.374,-2.3735,-2.3732,-2.3728,-2.3731,-2.3769,-2.3768,-2.3773,-2.3773,-2.3773,0,0,-2.2799,-2.2874,-2.2905,-2.3014,-2.3073,-2.3131,-2.3174,-2.3232,-2.3276,-2.335,-2.342,-2.3475,-2.3561,-2.3625,-2.3657,-2.3669,-2.3736,-2.3729,-2.3726,-2.3731,-2.3769,-2.3768,-2.3768,-2.3773,-2.3773,-2.3773,0,0,-2.279,-2.2851,-2.2897,-2.2956,-2.3046,-2.3105,-2.3116,-2.3218,-2.3257,-2.3329,-2.3386,-2.344,-2.3551,-2.3611,-2.3655,-2.3671,-2.3712,-2.3691,-2.3672,-2.3707,-2.3706,-2.3707,-2.3714,-2.3715,-2.3693,-2.3693,-2.3693,0,-2.2752,-2.284,-2.2915,-2.2971,-2.3018,-2.3089,-2.3136,-2.3191,-2.3297,-2.3328,-2.3341,-2.3483,-2.3546,-2.3626,-2.3631,-2.3664,-2.368,-2.3679,-2.37,-2.3701,-2.3703,-2.371,-2.3712,-2.369,-2.3691,-2.3691,-2.3691,0,-2.279,-2.2851,-2.2877,-2.2979,-2.3029,-2.308,-2.3164,-2.3206,-2.325,-2.3308,-2.3381,-2.3459,-2.3543,-2.3566,-2.3609,-2.3653,-2.3658,-2.3684,-2.3705,-2.3698,-2.3706,-2.371,-2.3686,-2.3687,-2.3688,-2.3689,0,0,-2.2732,-2.2877,-2.2885,-2.2934,-2.304,-2.3088,-2.3144,-2.3227,-2.3262,-2.3334,-2.3383,-2.3477,-2.3503,-2.3553,-2.3604,-2.3635,-2.3645,-2.3658,-2.3661,-2.3653,-2.37,-2.368,-2.3682,-2.3672,-2.3673,-2.3674,-2.3693,0,-2.2738,-2.284,-2.291,-2.2986,-2.3044,-2.3114,-2.3163,-2.3233,-2.329,-2.3348,-2.341,-2.3476,-2.3504,-2.3536,-2.3569,-2.3636,-2.3655,-2.3636,-2.372,-2.3722,-2.3696,-2.3687,-2.3665,-2.3679,-2.3697,-2.3698,-2.3698,0,-2.2757,-2.2829,-2.291,-2.3012,-2.3039,-2.3082,-2.3165,-2.3219,-2.3302,-2.3341,-2.3399,-2.3451,-2.3514,-2.353,-2.3619,-2.3604,-2.3643,-2.3681,-2.3684,-2.3694,-2.3709,-2.3697,-2.3686,-2.3688,-2.3704,-2.3704,-2.3703,0,-2.2708,-2.2824,-2.2889,-2.2928,-2.3048,-2.3077,-2.3128,-2.3211,-2.3258,-2.333,-2.3361,-2.344,-2.3483,-2.3543,-2.3616,-2.3621,-2.3698,-2.372,-2.3733,-2.3731,-2.3746,-2.3744,-2.3741,-2.377,-2.377,-2.377,-2.377,0,-2.2707,-2.2755,-2.2869,-2.2908,-2.2964,-2.3045,-2.3098,-2.3156,-2.3229,-2.3282,-2.3347,-2.3396,-2.3489,-2.3549,-2.3607,-2.3672,-2.3691,-2.3725,-2.374,-2.3719,-2.3715,-2.3746,-2.3747,-2.3771,-2.377,-2.377,-2.377,0,-2.2661,-2.2739,-2.2814,-2.2923,-2.2952,-2.2988,-2.3082,-2.3124,-2.3184,-2.3251,-2.3271,-2.3366,-2.3441,-2.352,-2.362,-2.3659,-2.3723,-2.3743,-2.3695,-2.3703,-2.3713,-2.3711,-2.3729,-2.3736,-2.376,-2.3759,-2.3759,0,-2.2655,-2.2694,-2.2807,-2.2848,-2.2898,-2.2961,-2.301,-2.3092,-2.3139,-2.3238,-2.3268,-2.3348,-2.3416,-2.3531,-2.361,-2.3688,-2.3711,-2.3713,-2.3723,-2.3702,-2.3713,-2.3709,-2.3715,-2.3709,-2.3708,-2.3707,-2.3707,0,-2.2637,-2.2675,-2.2741,-2.2822,-2.2878,-2.2946,-2.3016,-2.3045,-2.3141,-2.3192,-2.3269,-2.3322,-2.3426,-2.3505,-2.3593,-2.3647,-2.3693,-2.3703,-2.3711,-2.369,-2.3661,-2.3678,-2.3685,-2.3702,-2.3703,-2.3703,-2.3703,-2.3703,-2.2612,-2.265,-2.2736,-2.2809,-2.2871,-2.2936,-2.2981,-2.3049,-2.3115,-2.3206,-2.3251,-2.3328,-2.3413,-2.3536,-2.359,-2.3652,-2.3666,-2.3676,-2.3679,-2.368,-2.3676,-2.3651,-2.3668,-2.3669,-2.3669,-2.3669,-2.3669,0,-2.2598,-2.2657,-2.2724,-2.2821,-2.2878,-2.2918,-2.2999,-2.3044,-2.3112,-2.3187,-2.3253,-2.3343,-2.3421,-2.3506,-2.3589,-2.3623,-2.3647,-2.3642,-2.364,-2.3653,-2.3658,-2.3644,-2.3622,-2.3622,-2.3622,-2.3622,-2.3622,-2.3622,-2.2597,-2.2664,-2.2712,-2.2812,-2.2872,-2.2949,-2.2992,-2.3052,-2.3113,-2.3211,-2.3276,-2.3332,-2.3412,-2.3501,-2.3575,-2.3598,-2.3626,-2.3615,-2.3645,-2.3648,-2.3652,-2.3655,-2.3642,-2.362,-2.362,-2.3634,-2.3634,-2.3634]},{"header":{"parameterUnit":"m.s-1","parameterCategory":1,"la1":30.2991,"la2":30.254,"lo1":-89.0895,"lo2":-89.0444,"dy":0.0017,"dx":0.0017,"nx":28,"ny":28,"refTime":"2025-07-23T21:00:00:Z","depth":0,"parameterNumber":3,"parameterNumberName":"V-component_of_WINDS"},"data":[0,0,0,0,0,0,0,0,0,0,0,0,0,0,0,0,0,0,0,0,0,0,0,0,0,0,0,0,0,0,0,0,0,0,0,0,0,0,0,0,0,0,0,0,0,0,0,0,0,0,0,0,0,0,0,0,0,0,5.7934,5.7934,0,5.7922,5.7922,5.7922,5.7841,5.7839,5.7837,5.7835,5.782,5.7821,5.7822,0,0,0,0,0,0,0,0,0,0,0,0,0,5.7887,5.7888,5.7934,5.7934,5.7934,5.7922,5.7922,5.7922,5.7841,5.7839,5.7836,5.7834,5.7819,5.7821,5.7822,0,0,0,0,0,0,0,0,0,0,0,0,0,5.7894,5.7888,5.7934,5.7892,5.7888,5.7922,5.7922,5.7922,5.7842,5.7839,5.7836,5.7833,5.7818,5.7821,5.7823,5.7895,0,0,5.7829,5.783,0,0,0,0,0,0,0,0,5.7894,5.7896,5.7898,5.7895,5.7891,5.788,5.79,5.7913,5.7842,5.7859,5.7835,5.7832,5.7842,5.7842,5.7846,5.7894,5.7894,5.7829,5.7831,5.7832,5.7832,0,0,0,0,0,0,0,5.7894,5.7896,5.7929,5.7899,5.7894,5.7874,5.7872,5.7902,5.7867,5.7858,5.7852,5.7852,5.7839,5.7844,5.7845,5.7894,5.7829,5.7831,5.7833,5.7833,5.8006,5.8009,0,0,0,0,0,0,5.7899,5.7896,5.793,5.7929,5.7885,5.7877,5.7875,5.7886,5.7867,5.7861,5.7854,5.7848,5.7842,5.7843,5.7844,5.7931,5.7832,5.7834,5.7835,5.8003,5.8007,5.801,0,0,0,0,0,0,5.7898,5.7903,5.793,5.7911,5.7913,5.7881,5.7895,5.7888,5.7893,5.7864,5.7857,5.7866,5.784,5.7841,5.7885,5.7929,5.7835,5.7837,5.7999,5.8004,5.8009,5.8103,0,0,0,0,0,0,5.7897,5.7903,5.793,5.7912,5.7914,5.7971,5.7898,5.789,5.7897,5.7889,5.7873,5.7868,5.7837,5.7882,5.7887,5.793,5.7838,5.7995,5.8001,5.8007,5.8096,5.8111,5.8123,0,0,0,0,0,5.7896,5.7955,5.7931,5.7936,5.7947,5.7973,5.7974,5.7939,5.7901,5.7928,5.7911,5.7868,5.7924,5.7887,5.7892,5.7937,5.7992,5.7999,5.8007,5.809,5.8108,5.8123,0,0,0,0,0,0,5.7975,5.7952,5.7925,5.798,5.798,5.7959,5.7992,5.7959,5.7968,5.796,5.7915,5.7913,5.7963,5.7954,5.7913,5.8008,5.7951,5.796,5.8012,5.8029,5.8043,5.8044,5.784,0,0,0,0,0,5.8,5.8024,5.8001,5.8052,5.8053,5.8024,5.8033,5.8007,5.8004,5.8003,5.7988,5.7987,5.8004,5.8016,5.803,5.8095,5.8092,5.8128,5.8142,5.8154,5.8162,5.8199,5.8216,5.8035,5.8035,5.8035,0,0,5.805,5.804,5.8056,5.8068,5.8064,5.8091,5.8023,5.8052,5.8072,5.8007,5.8048,5.8038,5.8033,5.8089,5.8112,5.8083,5.8212,5.8163,5.8172,5.8174,5.8208,5.8226,5.8241,5.804,5.8039,5.8038,0,0,5.8154,5.8148,5.8192,5.8191,5.8188,5.8168,5.8179,5.8165,5.8157,5.8198,5.8151,5.8174,5.8204,5.8204,5.8207,5.8319,5.8281,5.8325,5.8396,5.8433,5.8448,5.846,5.8502,5.8518,5.8333,5.8333,5.8333,0,5.8215,5.8253,5.8218,5.8252,5.826,5.8206,5.8251,5.8251,5.8252,5.8259,5.8226,5.8267,5.8259,5.8316,5.8344,5.8348,5.8361,5.8325,5.8449,5.8461,5.8472,5.8512,5.8527,5.8339,5.8338,5.8337,5.8337,0,5.8331,5.8359,5.8394,5.84,5.8412,5.8451,5.8423,5.8439,5.8414,5.8398,5.8443,5.8434,5.8447,5.8458,5.8432,5.8513,5.8495,5.8457,5.8398,5.8495,5.8532,5.8547,5.8346,5.8344,5.8343,5.8341,0,0,5.8481,5.8471,5.8485,5.8489,5.8484,5.8505,5.8544,5.8559,5.8575,5.8579,5.8611,5.8641,5.8607,5.8612,5.8586,5.8618,5.8711,5.8576,5.8575,5.8603,5.8804,5.8834,5.8852,5.8687,5.869,5.8692,5.8805,0,5.8583,5.8648,5.862,5.8689,5.8716,5.8668,5.8702,5.8704,5.8692,5.8713,5.8699,5.8722,5.8674,5.8677,5.8707,5.8694,5.8751,5.8685,5.8717,5.8719,5.8721,5.887,5.8901,5.9007,5.8818,5.8821,5.8823,0,5.8709,5.8722,5.8795,5.879,5.88,5.8831,5.8846,5.8867,5.8869,5.8858,5.8867,5.8835,5.8874,5.8817,5.8871,5.8827,5.8839,5.8835,5.8839,5.884,5.8777,5.8877,5.904,5.9057,5.8844,5.8843,5.8841,0,5.8814,5.885,5.8899,5.8904,5.8899,5.8923,5.8921,5.8921,5.8934,5.8947,5.8955,5.8971,5.8981,5.8995,5.8969,5.8929,5.9029,5.8968,5.9022,5.9023,5.9044,5.9043,5.9212,5.9051,5.905,5.905,5.905,0,5.8931,5.8978,5.8947,5.8977,5.9029,5.8998,5.905,5.9044,5.9045,5.9074,5.9033,5.9061,5.9025,5.905,5.9031,5.9081,5.9084,5.9078,5.9072,5.9082,5.9083,5.9089,5.9082,5.9054,5.9053,5.9053,5.9052,0,5.9057,5.9037,5.9088,5.9082,5.9081,5.912,5.9115,5.9143,5.9131,5.9168,5.9175,5.9155,5.9183,5.916,5.9186,5.9173,5.924,5.9223,5.924,5.9236,5.9292,5.9288,5.9471,5.9495,5.9317,5.9319,5.932,0,5.9132,5.9168,5.9167,5.9185,5.9187,5.9215,5.923,5.9201,5.9218,5.9227,5.9255,5.928,5.9299,5.9347,5.9334,5.9355,5.9339,5.9403,5.9342,5.9353,5.9343,5.9342,5.9346,5.9415,5.9417,5.9418,5.942,0,5.9271,5.9261,5.9283,5.9305,5.9324,5.9339,5.935,5.9367,5.9338,5.936,5.939,5.9405,5.9434,5.9461,5.9479,5.9478,5.9446,5.944,5.9454,5.9464,5.9474,5.9472,5.9275,5.9435,5.9434,5.9432,5.9432,5.9431,5.9375,5.9406,5.9412,5.944,5.9446,5.9459,5.9487,5.948,5.9505,5.9528,5.951,5.9547,5.9553,5.9574,5.9578,5.9607,5.9581,5.96,5.9605,5.9611,5.962,5.9469,5.961,5.9609,5.9609,5.9608,5.9608,0,5.9512,5.9515,5.9542,5.9561,5.9584,5.9554,5.9567,5.9588,5.9621,5.963,5.9651,5.9688,5.9715,5.9707,5.9731,5.9756,5.9742,5.9764,5.9762,5.9763,5.9641,5.9627,5.9775,5.9775,5.9775,5.9775,5.9775,5.9775,5.9587,5.964,5.9632,5.9688,5.969,5.9728,5.9738,5.9751,5.9758,5.9802,5.9825,5.9821,5.9824,5.9849,5.9874,5.9871,5.9882,5.991,5.9902,5.9788,5.9771,5.9755,5.9743,5.9912,5.9912,6.0022,6.0023,6.0024]}]]